Wind_Speed
17 15 15 15 15 15 16 18 19 19 20 22 24 26 27 29 31 34 37 41 44 47 49 50 51 52 52 53 53 53 54 55 56 56 57 57 57 56 56 55 55 54 54 53
16 15 15 16 16 16 16 16 19 20 21 20 22 25 27 28 30 32 34 36 40 43 47 48 50 50 51 52 53 53 54 55 55 56 56 57 56 56 57 56 55 55 54 54
16 15 15 15 16 16 17 17 18 20 20 20 21 22 24 26 28 31 32 34 36 39 43 45 48 49 50 51 52 53 53 54 55 56 56 57 57 56 56 56 55 55 55 55
17 15 14 14 14 15 16 16 17 19 20 20 20 21 23 25 26 27 30 32 34 37 39 42 46 48 49 50 51 52 53 54 55 55 56 57 57 56 56 56 55 54 54 54
17 16 15 14 14 14 14 15 16 18 20 21 21 21 23 24 25 26 28 30 31 34 36 39 42 45 48 49 49 50 51 52 53 54 55 56 56 56 56 56 56 55 54 54
17 17 16 15 14 14 14 14 15 16 19 21 22 21 23 24 25 25 26 28 29 31 33 36 39 42 45 46 48 49 50 52 52 53 54 55 55 56 56 56 56 55 55 55
18 17 17 16 15 14 14 14 14 15 17 18 20 21 22 24 26 26 27 27 29 30 31 32 35 38 41 43 45 47 48 50 51 52 53 54 55 55 56 56 56 56 56 56
17 17 16 16 15 15 14 14 14 15 16 17 19 20 21 22 23 25 27 27 28 29 30 31 32 34 36 39 42 43 45 46 48 50 51 52 54 55 55 55 56 55 55 55
18 17 17 17 16 16 16 15 15 15 15 16 17 18 20 21 22 24 26 27 28 28 29 30 31 32 34 35 38 40 41 43 44 46 47 49 50 51 52 53 54 54 55 54
19 17 17 17 17 17 17 16 16 16 16 17 17 17 19 21 22 23 25 26 26 28 29 30 31 32 33 34 35 36 38 40 41 43 44 46 47 48 49 50 51 52 52 53
19 18 18 17 17 17 17 16 16 17 17 17 18 18 19 20 21 22 23 24 25 26 27 29 30 31 31 32 34 35 36 37 39 39 41 43 43 44 45 47 48 49 49 50
19 19 18 17 17 17 17 17 17 17 16 17 17 17 18 19 20 21 22 23 24 25 26 27 29 30 31 32 34 34 34 35 36 37 38 40 41 42 43 44 45 47 48 48
20 19 19 18 18 18 17 17 17 17 17 16 16 16 17 18 20 22 22 22 23 24 25 26 27 29 30 30 32 34 34 35 35 36 36 38 39 40 41 42 43 44 45 46
20 19 18 18 18 18 18 18 17 17 17 17 16 16 17 18 19 21 22 22 22 23 24 25 27 27 29 30 31 32 33 34 34 34 35 36 38 39 40 41 42 43 43 44
20 20 19 19 18 18 17 17 17 17 17 16 16 16 17 18 19 20 21 21 22 22 23 24 25 26 27 29 30 31 31 32 32 32 33 34 36 38 39 40 41 41 41 41
20 20 20 19 19 18 17 17 17 16 16 16 15 15 16 17 18 19 21 21 22 22 22 24 25 26 27 27 28 29 30 31 32 32 33 34 35 36 37 38 39 39 40 40
20 20 20 19 19 18 18 17 17 17 17 16 15 15 16 17 18 19 20 21 22 22 22 23 24 25 26 27 28 29 29 30 31 32 32 33 34 35 36 37 37 38 39 39
21 21 20 20 19 18 18 18 18 18 18 17 17 16 16 16 17 18 19 20 21 21 22 22 23 24 25 27 27 28 29 29 30 31 32 33 34 34 35 35 36 36 37 37
22 21 21 20 19 19 18 18 19 18 18 18 17 17 17 17 17 18 19 20 21 21 22 22 23 24 25 25 26 26 27 29 30 31 32 33 34 35 35 35 36 36 36 37
22 21 21 21 20 20 20 20 19 19 18 18 18 18 17 17 18 18 19 20 21 21 22 23 24 24 24 25 26 26 27 27 28 30 31 32 32 33 34 35 35 35 36 36
22 21 21 21 21 21 20 20 19 19 19 18 18 18 18 18 18 18 19 19 20 21 22 23 24 24 25 25 26 27 27 27 27 27 28 29 30 31 31 32 32 33 33 34
22 21 21 21 21 21 21 20 20 19 19 19 19 19 19 19 19 19 19 20 20 21 21 22 23 23 24 24 25 26 26 26 26 26 27 27 28 28 29 30 30 31 31 31
22 21 21 21 21 21 21 20 20 19 19 19 19 19 19 19 19 19 20 20 20 21 21 22 23 24 24 24 24 24 25 26 26 26 26 26 27 27 28 28 29 29 30 30
22 22 22 22 22 22 21 21 20 20 19 19 18 18 19 19 19 20 20 20 20 21 21 22 22 23 24 24 24 24 24 25 25 25 25 25 25 26 26 27 28 28 28 29
23 22 22 22 22 21 21 20 20 20 20 19 19 18 19 19 20 20 20 20 20 21 21 22 22 23 23 24 24 24 24 24 25 25 25 25 25 26 26 26 27 27 27 27
22 22 21 21 20 20 20 20 20 20 19 19 19 18 18 19 19 20 20 20 21 21 21 22 22 22 23 24 24 24 24 24 24 24 25 25 26 26 27 27 27 28 28 28
22 22 21 21 20 20 20 19 19 19 19 19 19 19 18 18 18 19 20 20 21 21 22 22 22 23 23 23 24 24 24 24 25 24 24 25 25 26 27 27 27 27 27 27
Wind_Direction
307 299 290 284 281 278 273 265 255 251 251 249 245 242 240 237 234 232 230 228 227 226 227 227 228 228 228 228 229 230 230 231 231 231 231 232 233 235 236 237 238 239 240 242
316 303 292 286 284 278 274 267 255 251 253 253 248 246 244 240 236 234 232 229 228 228 227 228 227 228 228 229 229 230 230 231 231 232 232 232 233 234 235 237 238 240 241 242
323 316 304 293 287 280 276 271 263 256 252 249 247 246 245 242 240 236 233 229 228 227 228 228 228 228 229 229 230 230 231 232 233 233 234 234 234 235 236 237 238 240 241 242
326 321 312 308 297 287 278 273 266 258 252 249 247 243 242 241 240 238 233 229 229 228 227 228 228 228 229 230 231 231 232 232 233 233 234 235 235 236 236 237 238 240 241 243
323 321 318 312 302 294 285 278 270 262 255 251 249 246 242 240 238 236 233 228 227 228 228 228 229 230 231 231 231 232 232 233 233 234 235 236 236 236 237 239 239 240 241 243
320 319 321 317 308 298 291 284 278 270 261 254 252 248 242 238 237 235 233 229 227 227 228 229 229 229 230 231 232 233 233 234 234 235 236 236 237 237 238 239 240 241 242 244
319 318 320 319 314 303 296 293 286 278 270 259 254 250 244 241 239 236 234 232 230 229 230 229 229 228 229 230 231 233 234 234 235 235 236 237 237 237 238 239 240 242 243 244
321 319 319 318 314 307 300 294 289 282 275 266 258 250 245 242 240 237 234 233 233 232 231 231 230 229 229 230 231 232 233 233 234 234 235 236 237 238 239 240 241 242 243 244
324 322 317 314 308 304 301 296 290 285 279 271 262 253 249 245 242 238 236 235 235 233 231 232 231 231 230 229 229 230 232 233 233 234 234 236 237 238 239 240 241 242 243 244
321 322 318 314 309 303 300 298 294 288 281 273 265 254 249 246 244 241 238 236 235 234 232 231 232 232 231 231 231 231 231 233 234 235 235 236 237 238 239 240 241 241 243 244
318 317 316 313 309 305 302 298 294 291 287 279 272 262 253 249 246 244 240 236 234 233 233 233 233 233 233 232 232 233 233 234 235 235 235 236 236 237 238 239 240 240 242 243
317 316 315 312 309 306 304 300 296 293 288 281 275 268 259 252 248 245 243 241 237 234 233 233 234 235 235 235 233 233 234 235 235 235 236 236 236 237 238 239 239 240 241 243
317 315 314 311 308 305 302 300 297 293 288 282 274 267 261 254 248 245 244 243 242 239 237 235 235 234 234 235 235 234 234 236 237 238 239 238 237 237 238 239 240 241 243 244
313 313 313 311 308 304 302 301 299 297 292 284 275 268 261 255 248 246 244 244 242 241 239 238 237 236 236 236 235 234 234 236 237 239 240 239 239 239 239 240 241 243 245 246
311 311 311 310 308 305 304 302 299 297 295 287 276 269 265 257 251 248 245 243 243 243 242 240 239 238 237 237 236 235 235 235 237 238 239 239 239 239 240 241 242 244 245 247
311 312 310 308 307 304 301 301 299 297 295 288 280 272 266 259 253 248 245 244 242 242 241 241 241 239 238 238 237 237 237 237 238 239 240 241 241 241 242 243 243 244 245 246
311 310 309 308 306 304 301 300 297 295 294 288 281 276 270 262 254 248 245 243 242 242 242 241 241 240 240 240 240 239 239 239 240 240 241 242 243 243 243 244 245 246 246 247
309 308 306 305 304 303 301 300 298 294 290 286 281 277 273 265 257 251 247 245 244 244 243 242 241 240 241 242 241 240 241 242 243 244 244 243 243 244 245 245 245 246 247 247
306 306 305 303 301 301 300 299 297 294 289 285 280 276 272 265 259 255 250 248 247 246 245 243 240 240 240 239 241 242 244 244 244 245 245 245 245 244 244 244 244 245 246 247
304 303 302 301 300 299 299 298 297 294 290 286 280 274 270 265 260 256 253 251 250 248 247 245 243 242 241 241 241 243 245 246 246 246 246 246 245 244 243 242 243 244 245 247
303 302 300 300 300 299 298 298 298 295 291 287 281 275 270 266 261 257 254 253 252 251 250 248 246 245 244 244 244 244 245 245 245 246 246 246 245 244 243 243 243 244 246 247
303 303 302 300 298 298 297 297 297 294 291 287 282 277 271 267 263 259 256 254 254 255 253 250 249 248 246 246 246 246 246 245 245 245 245 245 244 244 244 244 244 246 247 248
304 303 302 300 299 297 296 296 295 294 291 287 283 278 273 267 262 259 257 255 254 254 253 253 251 249 247 247 247 248 248 247 246 245 245 245 245 245 244 245 245 246 247 248
305 304 303 301 300 298 296 295 294 293 292 289 284 279 274 268 264 261 259 256 254 253 253 252 252 250 248 247 247 248 248 248 247 246 246 246 246 245 244 244 245 245 247 248
306 305 304 302 302 300 298 297 295 295 293 291 288 282 276 271 266 263 260 257 255 253 252 252 251 250 249 247 247 248 248 247 247 246 246 246 246 245 245 245 245 245 247 249
306 305 304 303 303 302 301 299 298 296 294 292 290 286 281 275 270 265 261 258 256 254 253 252 251 251 250 248 248 249 248 247 247 248 247 246 245 245 245 245 246 246 247 249
305 304 303 303 303 304 303 301 299 297 296 294 292 289 284 278 271 266 262 259 257 254 254 253 252 251 250 249 248 248 248 248 247 247 247 246 245 245 245 247 248 248 249 250
Height
5520 5517 5516 5515 5514 5513 5512 5511 5511 5512 5512 5513 5515 5517 5519 5521 5525 5528 5532 5537 5542 5548 5554 5560 5567 5573 5580 5586 5593 5599 5605 5612 5618 5625 5632 5638 5644 5650 5656 5662 5668 5673 5678 5683
5516 5514 5512 5511 5509 5508 5507 5506 5506 5507 5508 5508 5509 5510 5512 5514 5517 5520 5524 5528 5533 5538 5544 5550 5556 5563 5569 5576 5582 5588 5594 5601 5607 5613 5620 5626 5632 5638 5644 5650 5656 5661 5666 5671
5513 5510 5508 5506 5505 5504 5502 5501 5501 5501 5503 5503 5503 5505 5506 5507 5510 5513 5516 5520 5525 5529 5534 5540 5546 5552 5559 5565 5571 5577 5583 5589 5595 5602 5608 5614 5620 5626 5632 5638 5643 5648 5653 5658
5509 5507 5504 5505 5500 5499 5497 5496 5496 5496 5496 5497 5498 5499 5500 5501 5503 5506 5509 5513 5517 5521 5526 5531 5536 5542 5548 5554 5560 5566 5572 5578 5584 5590 5596 5602 5608 5614 5620 5625 5631 5636 5641 5646
5506 5503 5500 5499 5496 5494 5493 5492 5491 5490 5491 5491 5492 5493 5494 5495 5497 5499 5502 5505 5509 5513 5517 5522 5526 5532 5538 5543 5549 5554 5560 5566 5572 5578 5584 5590 5596 5602 5607 5612 5618 5623 5628 5633
5502 5499 5497 5496 5493 5489 5489 5488 5487 5485 5485 5485 5486 5487 5489 5490 5491 5493 5496 5498 5502 5505 5509 5513 5517 5522 5528 5533 5538 5543 5549 5554 5560 5566 5572 5577 5583 5589 5594 5600 5605 5610 5615 5620
5498 5495 5493 5492 5488 5486 5486 5484 5482 5480 5479 5479 5479 5481 5482 5483 5485 5487 5489 5492 5495 5498 5502 5505 5509 5513 5518 5523 5528 5533 5538 5543 5548 5553 5559 5565 5571 5576 5581 5587 5592 5597 5602 5607
5495 5492 5492 5487 5484 5483 5481 5478 5477 5475 5474 5474 5474 5474 5475 5476 5478 5480 5483 5486 5489 5491 5494 5498 5501 5505 5509 5514 5518 5523 5528 5532 5537 5541 5547 5552 5557 5563 5568 5573 5578 5583 5588 5593
5492 5490 5486 5483 5480 5478 5476 5474 5472 5471 5469 5469 5468 5469 5469 5470 5472 5474 5476 5479 5481 5484 5487 5490 5494 5497 5501 5505 5509 5513 5518 5522 5526 5531 5535 5540 5545 5550 5555 5560 5565 5570 5575 5580
5487 5485 5481 5479 5476 5473 5471 5469 5467 5466 5464 5464 5463 5463 5464 5464 5466 5467 5469 5472 5474 5477 5480 5483 5486 5490 5493 5497 5501 5505 5509 5513 5517 5521 5525 5529 5534 5538 5543 5547 5552 5557 5562 5567
5483 5480 5477 5475 5471 5469 5467 5464 5462 5461 5459 5458 5458 5457 5458 5458 5460 5461 5463 5465 5468 5470 5473 5476 5479 5482 5485 5489 5492 5496 5500 5504 5507 5511 5515 5519 5523 5527 5531 5536 5540 5545 5549 5553
5479 5476 5473 5470 5467 5464 5462 5460 5458 5456 5454 5453 5452 5451 5452 5453 5454 5455 5457 5459 5461 5464 5466 5469 5472 5475 5478 5481 5485 5488 5492 5495 5498 5502 5505 5509 5513 5517 5521 5525 5528 5532 5537 5540
5474 5471 5468 5465 5462 5459 5457 5455 5453 5451 5449 5448 5447 5446 5447 5447 5448 5449 5451 5453 5455 5457 5460 5462 5465 5468 5471 5474 5477 5480 5483 5487 5490 5493 5496 5500 5503 5507 5511 5514 5518 5521 5525 5528
5468 5466 5463 5460 5457 5454 5452 5450 5448 5445 5443 5442 5441 5441 5441 5441 5442 5443 5445 5446 5448 5450 5453 5455 5458 5461 5463 5466 5469 5472 5475 5478 5481 5484 5487 5491 5494 5497 5501 5504 5507 5510 5513 5516
5463 5460 5458 5455 5452 5449 5447 5445 5443 5440 5438 5436 5436 5435 5435 5435 5436 5437 5438 5440 5442 5444 5446 5448 5450 5453 5456 5458 5461 5464 5467 5470 5473 5475 5478 5481 5484 5487 5490 5493 5496 5499 5501 5504
5458 5455 5452 5449 5447 5444 5442 5440 5437 5435 5433 5431 5430 5429 5429 5429 5429 5430 5432 5433 5435 5437 5439 5441 5443 5445 5448 5450 5453 5456 5459 5461 5464 5467 5469 5472 5475 5477 5480 5483 5485 5488 5490 5493
5452 5450 5447 5444 5442 5439 5437 5434 5432 5430 5427 5426 5425 5424 5423 5423 5423 5424 5425 5427 5429 5430 5432 5434 5436 5438 5440 5443 5445 5448 5450 5453 5455 5458 5460 5463 5465 5468 5470 5473 5475 5477 5480 5482
5446 5444 5441 5438 5436 5433 5431 5428 5426 5424 5422 5420 5419 5418 5417 5417 5417 5418 5419 5420 5422 5424 5425 5427 5429 5430 5432 5435 5437 5439 5442 5444 5446 5448 5451 5453 5456 5458 5460 5462 5465 5467 5469 5471
5440 5437 5435 5432 5430 5428 5425 5423 5420 5418 5416 5414 5413 5412 5411 5411 5411 5412 5413 5414 5415 5417 5418 5420 5421 5423 5424 5427 5429 5431 5433 5435 5437 5439 5441 5443 5446 5448 5450 5452 5454 5456 5459 5461
5433 5431 5428 5426 5424 5421 5419 5417 5414 5412 5410 5408 5407 5406 5405 5405 5405 5405 5406 5407 5408 5410 5411 5412 5414 5415 5417 5419 5421 5423 5425 5426 5428 5430 5432 5434 5436 5438 5440 5442 5444 5446 5448 5450
5426 5424 5422 5419 5417 5415 5413 5410 5408 5406 5404 5402 5401 5400 5399 5399 5399 5399 5400 5401 5402 5402 5403 5404 5406 5407 5409 5411 5412 5414 5416 5418 5420 5421 5423 5425 5427 5428 5430 5432 5434 5436 5438 5440
5420 5417 5415 5412 5410 5408 5406 5404 5401 5399 5397 5395 5394 5393 5392 5392 5392 5393 5393 5394 5395 5395 5396 5397 5398 5400 5401 5403 5404 5406 5408 5409 5411 5413 5414 5416 5418 5420 5421 5423 5425 5427 5429 5430
5413 5411 5408 5406 5403 5401 5399 5397 5395 5393 5391 5389 5387 5386 5385 5385 5385 5386 5386 5387 5387 5388 5389 5390 5391 5392 5393 5395 5396 5398 5399 5401 5403 5404 5406 5408 5409 5411 5413 5415 5417 5418 5420 5421
5406 5404 5401 5399 5397 5394 5392 5390 5388 5386 5384 5382 5381 5380 5379 5378 5378 5378 5379 5379 5380 5381 5381 5382 5383 5385 5386 5387 5389 5390 5392 5393 5395 5396 5398 5400 5401 5403 5405 5406 5408 5410 5411 5413
5399 5397 5395 5392 5390 5388 5385 5383 5381 5379 5377 5376 5374 5373 5372 5371 5371 5371 5371 5372 5372 5373 5374 5375 5376 5377 5378 5380 5381 5382 5384 5385 5387 5388 5390 5391 5393 5395 5396 5398 5400 5401 5403 5404
5392 5390 5388 5386 5383 5381 5379 5377 5374 5372 5370 5369 5367 5366 5365 5364 5364 5364 5364 5364 5365 5365 5366 5367 5368 5369 5370 5372 5373 5375 5376 5377 5379 5380 5382 5383 5385 5386 5388 5390 5391 5393 5394 5395
5385 5383 5381 5379 5377 5375 5372 5370 5368 5366 5364 5362 5361 5359 5358 5357 5357 5356 5356 5357 5357 5358 5358 5359 5360 5361 5363 5364 5365 5367 5368 5369 5370 5372 5373 5375 5376 5378 5380 5381 5383 5384 5386 5387